User: anonymous   Login
Location: Terra Rouge Observatory
(46.0000°N, 62.7500°W)
Time: 13:55:32
(UTC-03:00)
Language:

NOSS 3-1 (A) - Orbit

View from above orbital plane
View from above orbital plane
View from above satellite
View from above satellite

Ground track
Ground track

The orbit data is extracted from the following two-line orbital elements,

1 26905U 01040A   15231.99291221 0.00000000  00000-0  00000-0 0    07
2 26905  63.4260 296.2464 0310000 357.4023   2.5976 13.40722701    02
Epoch (UTC): 19 August 2015 23:49:47
Eccentricity: 0.0310000
inclination: 63.4260°
perigee height: 874 km
apogee height: 1338 km
right ascension of ascending node: 296.2464°
argument of perigee: 357.4023°
revolutions per day: 13.40722701
mean anomaly at epoch: 2.5976°
orbit number at epoch: 0

The dashed part of the orbit path shows where the satellite is in the earth's shadow,  

DLR